Back to catalog

COSMOS 970 DEB

AliveLEO
NORAD 10567·DEBRIS·🇷🇺 Russia

Launched Dec 21, 1977 from Baikonur Cosmodrome

Loading…

Next Passes (next 24 hours)

TLE

FreshSource: Space-Track

Epoch: Sep 14, 2026, 09:18 UTC

1 10567U 77121J   26257.38774564 -.00000039  00000-0  52816-4 0  9992
2 10567  65.7922 250.8686 0092799  77.4504  69.5228 13.55486202409922

Track COSMOS 970 DEB in real time with AllMySat

Download on the App Store